,,,PA_Meas_PMT16A,,PR_Meas_QMR101_102,,RH_Meas_QMH101,,SR_Meas_QMS101,,TA_Meas_QMH101,,GenWind,,GenWind,
date,time,status,PA,status,PR,status,RH,status,SR,status,TA,status,DirAvg,status,SpdAvg,
2008-10-20, 00:00:04,VALID,1003.36,VALID,0,VALID,91.5847,VALID,0,VALID,25.2221,VALID,330,VALID,0.644922,
2008-10-20, 00:01:04,VALID,1003.36,VALID,0,VALID,91.5771,VALID,0,VALID,25.2416,VALID,347,VALID,0.284375,
2008-10-20, 00:02:04,VALID,1003.37,VALID,0,VALID,91.5389,VALID,0,VALID,25.2221,VALID,347,VALID,0.592188,
2008-10-20, 00:03:04,VALID,1003.35,VALID,0,VALID,91.5161,VALID,0,VALID,25.2221,VALID,346,VALID,0.391797,
2008-10-20, 00:04:04,VALID,1003.34,VALID,0,VALID,91.5008,VALID,0,VALID,25.2416,VALID,346,VALID,0.503516,
2008-10-20, 00:05:04,VALID,1003.35,VALID,0,VALID,91.4626,VALID,0,VALID,25.2007,VALID,346,VALID,0.348437,
2008-10-20, 00:06:04,VALID,1003.34,VALID,0,VALID,91.4703,VALID,0.100563,VALID,25.2221,VALID,347,VALID,0.155469,
2008-10-20, 00:07:04,VALID,1003.32,VALID,0,VALID,91.4855,VALID,0,VALID,25.2027,VALID,347,VALID,0.0207031,
2008-10-20, 00:08:04,VALID,1003.33,VALID,0,VALID,91.5847,VALID,0,VALID,25.2027,VALID,347,VALID,0.294141,
2008-10-20, 00:09:04,VALID,1003.28,VALID,0,VALID,91.5771,VALID,0,VALID,25.1656,VALID,346,VALID,0.300781,
2008-10-20, 00:10:04,VALID,1003.27,VALID,0,VALID,91.8136,VALID,0,VALID,25.1656,VALID,346,VALID,0.482422,
2008-10-20, 00:11:04,VALID,1003.28,VALID,0,VALID,91.8822,VALID,0,VALID,25.1461,VALID,343,VALID,0.537891,
2008-10-20, 00:12:04,VALID,1003.26,VALID,0,VALID,91.9738,VALID,0,VALID,25.1656,VALID,339,VALID,0.356641,
2008-10-20, 00:13:04,VALID,1003.26,VALID,0,VALID,92.0119,VALID,0,VALID,25.1442,VALID,339,VALID,0.00195313,
2008-10-20, 00:14:04,VALID,1003.27,VALID,0,VALID,91.9509,VALID,0,VALID,25.1442,VALID,339,VALID,0.452344,
2008-10-20, 00:15:04,VALID,1003.23,VALID,0,VALID,91.9738,VALID,0,VALID,25.1656,VALID,337,VALID,0.439063,
2008-10-20, 00:16:04,VALID,1003.25,VALID,0,VALID,91.8288,VALID,0,VALID,25.1656,VALID,32,VALID,0.102344,
2008-10-20, 00:17:04,VALID,1003.24,VALID,0,VALID,91.9051,VALID,0,VALID,25.1656,VALID,5,VALID,0.266406,
2008-10-20, 00:18:04,VALID,1003.26,VALID,0,VALID,91.8746,VALID,0,VALID,25.1851,VALID,5,VALID,0.282031,
2008-10-20, 00:19:04,VALID,1003.25,VALID,0,VALID,91.7754,VALID,0,VALID,25.226,VALID,5,VALID,0.0175781,
2008-10-20, 00:20:04,VALID,1003.25,VALID,0,VALID,91.8365,VALID,0,VALID,25.2065,VALID,5,VALID,0,
2008-10-20, 00:21:04,VALID,1003.23,VALID,0,VALID,91.8822,VALID,0,VALID,25.2046,VALID,5,VALID,0,
2008-10-20, 00:22:04,VALID,1003.24,VALID,0,VALID,92.0501,VALID,0,VALID,25.1851,VALID,6,VALID,0.251172,
2008-10-20, 00:23:04,VALID,1003.23,VALID,0,VALID,92.1416,VALID,0,VALID,25.226,VALID,42,VALID,0.241797,
2008-10-20, 00:24:04,VALID,1003.24,VALID,0,VALID,92.0806,VALID,0.100563,VALID,25.2221,VALID,42,VALID,0.0121094,
2008-10-20, 00:25:04,VALID,1003.2,VALID,0,VALID,91.9662,VALID,0,VALID,25.2611,VALID,43,VALID,0.209375,
2008-10-20, 00:26:04,VALID,1003.19,VALID,0,VALID,91.7602,VALID,0,VALID,25.2611,VALID,39,VALID,0.228906,
2008-10-20, 00:27:04,VALID,1003.17,VALID,0,VALID,91.7907,VALID,0,VALID,25.2611,VALID,39,VALID,0.0148437,
2008-10-20, 00:28:04,VALID,1003.14,VALID,0,VALID,91.6991,VALID,0,VALID,25.2611,VALID,39,VALID,0.253906,
2008-10-20, 00:29:04,VALID,1003.12,VALID,0,VALID,91.5466,VALID,0,VALID,25.2611,VALID,39,VALID,0.294922,
2008-10-20, 00:30:04,VALID,1003.14,VALID,0,VALID,91.5313,VALID,0,VALID,25.2221,VALID,39,VALID,0.266016,
2008-10-20, 00:31:04,VALID,1003.12,VALID,0,VALID,91.5847,VALID,0.100563,VALID,25.2027,VALID,39,VALID,0.10625,
2008-10-20, 00:32:04,VALID,1003.1,VALID,0,VALID,91.6991,VALID,0.100563,VALID,25.2027,VALID,39,VALID,0.0492188,
2008-10-20, 00:33:04,VALID,1003.09,VALID,0,VALID,91.6076,VALID,0,VALID,25.2221,VALID,39,VALID,0.178125,
2008-10-20, 00:34:04,VALID,1003.06,VALID,0,VALID,91.4016,VALID,0,VALID,25.2027,VALID,36,VALID,0.411719,
2008-10-20, 00:35:04,VALID,1003.08,VALID,0,VALID,91.4779,VALID,0,VALID,25.1832,VALID,25,VALID,0.324219,
2008-10-20, 00:36:04,VALID,1003.05,VALID,0,VALID,91.6915,VALID,0.100563,VALID,25.1442,VALID,360,VALID,0.521484,
2008-10-20, 00:37:04,VALID,1003.07,VALID,0,VALID,91.8365,VALID,0,VALID,25.1442,VALID,358,VALID,0.399609,
2008-10-20, 00:38:04,VALID,1003.07,VALID,0,VALID,91.9051,VALID,0,VALID,25.1248,VALID,358,VALID,0.459375,
2008-10-20, 00:39:04,VALID,1003.06,VALID,0,VALID,91.9585,VALID,0,VALID,25.1461,VALID,358,VALID,0.513672,
2008-10-20, 00:40:04,VALID,1003.07,VALID,0,VALID,91.9585,VALID,0,VALID,25.1053,VALID,358,VALID,0.392578,
2008-10-20, 00:41:04,VALID,1003.11,VALID,0,VALID,92.0272,VALID,0,VALID,25.0663,VALID,358,VALID,0.327734,
2008-10-20, 00:42:04,VALID,1003.08,VALID,0,VALID,92.2332,VALID,0.100563,VALID,25.0274,VALID,358,VALID,0.510938,
2008-10-20, 00:43:04,VALID,1003.11,VALID,0,VALID,92.3705,VALID,0,VALID,25.0079,VALID,358,VALID,0.41875,
2008-10-20, 00:44:04,VALID,1003.09,VALID,0,VALID,92.4773,VALID,0,VALID,24.9885,VALID,358,VALID,0.207031,
2008-10-20, 00:45:04,VALID,1003.07,VALID,0,VALID,92.5383,VALID,0,VALID,24.9495,VALID,358,VALID,0.302344,
2008-10-20, 00:46:04,VALID,1003.04,VALID,0,VALID,92.607,VALID,0,VALID,24.9106,VALID,358,VALID,0.329297,
2008-10-20, 00:47:04,VALID,1003.02,VALID,0,VALID,92.8664,VALID,0.100563,VALID,24.8911,VALID,343,VALID,0.526172,
2008-10-20, 00:48:04,VALID,1002.98,VALID,0,VALID,93.0266,VALID,0,VALID,24.9514,VALID,302,VALID,0.496875,
2008-10-20, 00:49:04,VALID,1002.95,VALID,0,VALID,93.1029,VALID,0,VALID,24.93,VALID,303,VALID,0.305469,
2008-10-20, 00:50:04,VALID,1002.89,VALID,0,VALID,93.1639,VALID,0,VALID,24.9087,VALID,303,VALID,0.388672,
2008-10-20, 00:51:04,VALID,1002.87,VALID,0,VALID,93.2173,VALID,0.100563,VALID,24.969,VALID,308,VALID,0.516406,
2008-10-20, 00:52:04,VALID,1002.88,VALID,0,VALID,93.2783,VALID,0,VALID,24.9866,VALID,355,VALID,0.570703,
2008-10-20, 00:53:04,VALID,1002.91,VALID,0,VALID,93.1639,VALID,0,VALID,25.0079,VALID,33,VALID,0.537109,
2008-10-20, 00:54:04,VALID,1002.89,VALID,0,VALID,93.1334,VALID,0.100563,VALID,25.006,VALID,33,VALID,0.690234,
2008-10-20, 00:55:04,VALID,1002.91,VALID,0,VALID,93.1181,VALID,0.100563,VALID,25.0255,VALID,33,VALID,0.247656,
2008-10-20, 00:56:04,VALID,1003,VALID,0,VALID,93.2402,VALID,0.100563,VALID,25.0255,VALID,100,VALID,0.865234,
2008-10-20, 00:57:04,VALID,1003.13,VALID,0,VALID,93.5072,VALID,0,VALID,25.1248,VALID,119,VALID,1.66328,
2008-10-20, 00:58:04,VALID,1003.31,VALID,0,VALID,92.8511,VALID,0,VALID,25.4577,VALID,125,VALID,3.20234,
2008-10-20, 00:59:04,VALID,1003.36,VALID,0,VALID,91.3711,VALID,0,VALID,25.5532,VALID,115,VALID,2.97578,
2008-10-20, 01:00:04,VALID,1003.39,VALID,1.5,VALID,91.3177,VALID,0,VALID,25.3195,VALID,135,VALID,3.61719,
2008-10-20, 01:01:04,VALID,1003.38,VALID,1.5,VALID,92.0043,VALID,0,VALID,25.0469,VALID,121,VALID,2.38906,
2008-10-20, 01:02:04,VALID,1003.32,VALID,1,VALID,92.6604,VALID,0,VALID,24.8522,VALID,96,VALID,2.81797,
2008-10-20, 01:03:04,VALID,1003.3,VALID,0,VALID,93.0571,VALID,0.100563,VALID,24.6769,VALID,124,VALID,2.63945,
2008-10-20, 01:04:04,VALID,1003.29,VALID,0,VALID,93.4385,VALID,0,VALID,24.5796,VALID,140,VALID,2.29219,
2008-10-20, 01:05:04,VALID,1003.36,VALID,0.5,VALID,93.7742,VALID,0,VALID,24.5212,VALID,128,VALID,2.83828,
2008-10-20, 01:06:04,VALID,1003.31,VALID,0,VALID,93.9802,VALID,0.100563,VALID,24.4628,VALID,123,VALID,1.00703,
2008-10-20, 01:07:04,VALID,1003.3,VALID,0.5,VALID,93.9878,VALID,0,VALID,24.3654,VALID,94,VALID,2.02695,
2008-10-20, 01:08:04,VALID,1003.34,VALID,0.5,VALID,93.9497,VALID,0,VALID,24.2486,VALID,103,VALID,2.64453,
2008-10-20, 01:09:04,VALID,1003.35,VALID,1.5,VALID,94.0183,VALID,0,VALID,24.1318,VALID,101,VALID,2.28086,
2008-10-20, 01:10:04,VALID,1003.32,VALID,1,VALID,94.3464,VALID,0,VALID,24.0539,VALID,89,VALID,1.42969,
2008-10-20, 01:11:04,VALID,1003.33,VALID,0.5,VALID,94.5752,VALID,0,VALID,24.015,VALID,119,VALID,1.49961,
2008-10-20, 01:12:04,VALID,1003.33,VALID,1,VALID,94.7354,VALID,0,VALID,23.9761,VALID,107,VALID,1.64883,
2008-10-20, 01:13:04,VALID,1003.32,VALID,0.5,VALID,94.8346,VALID,0,VALID,23.9177,VALID,121,VALID,1.25078,
2008-10-20, 01:14:04,VALID,1003.32,VALID,1,VALID,94.9796,VALID,0,VALID,23.8982,VALID,130,VALID,1.59883,
2008-10-20, 01:15:04,VALID,1003.29,VALID,0.5,VALID,95.1169,VALID,0,VALID,23.8982,VALID,130,VALID,0.626562,
2008-10-20, 01:16:04,VALID,1003.28,VALID,1,VALID,95.422,VALID,0,VALID,23.8769,VALID,136,VALID,1.28398,
2008-10-20, 01:17:04,VALID,1003.26,VALID,0.5,VALID,95.4983,VALID,0,VALID,23.8982,VALID,130,VALID,0.656641,
2008-10-20, 01:18:04,VALID,1003.21,VALID,1,VALID,95.5594,VALID,0,VALID,23.8982,VALID,85,VALID,0.69375,
2008-10-20, 01:19:04,VALID,1003.13,VALID,0.5,VALID,95.6204,VALID,0,VALID,23.8982,VALID,81,VALID,0.382031,
2008-10-20, 01:20:04,VALID,1003.11,VALID,0.5,VALID,95.6433,VALID,0,VALID,23.8787,VALID,84,VALID,0.239844,
2008-10-20, 01:21:04,VALID,1003.06,VALID,1,VALID,95.6814,VALID,0,VALID,23.9,VALID,73,VALID,0.428906,
2008-10-20, 01:22:04,VALID,1003.02,VALID,0.5,VALID,95.7424,VALID,0,VALID,23.8982,VALID,39,VALID,0.316797,
2008-10-20, 01:23:04,VALID,1002.99,VALID,0.5,VALID,95.7806,VALID,0,VALID,23.9,VALID,16,VALID,0.882422,
2008-10-20, 01:24:04,VALID,1002.97,VALID,0,VALID,95.8035,VALID,0,VALID,23.8982,VALID,8,VALID,1.04492,
2008-10-20, 01:25:04,VALID,1002.9,VALID,0.5,VALID,95.7806,VALID,0,VALID,23.8575,VALID,342,VALID,0.701563,
2008-10-20, 01:26:04,VALID,1002.89,VALID,0,VALID,95.8645,VALID,0,VALID,23.8787,VALID,343,VALID,0.980078,
2008-10-20, 01:27:04,VALID,1002.88,VALID,0,VALID,95.895,VALID,0,VALID,23.8982,VALID,347,VALID,0.778125,
2008-10-20, 01:28:04,VALID,1002.85,VALID,0,VALID,95.895,VALID,0,VALID,23.8787,VALID,32,VALID,0.641016,
2008-10-20, 01:29:04,VALID,1002.84,VALID,0,VALID,95.9255,VALID,0,VALID,23.8982,VALID,350,VALID,0.480078,
2008-10-20, 01:30:04,VALID,1002.81,VALID,0,VALID,95.9637,VALID,0,VALID,23.8982,VALID,350,VALID,0.390625,
2008-10-20, 01:31:04,VALID,1002.8,VALID,0,VALID,95.9637,VALID,0.100563,VALID,23.8964,VALID,350,VALID,0.0117188,
2008-10-20, 01:32:04,VALID,1002.84,VALID,0,VALID,95.9484,VALID,0,VALID,23.8964,VALID,350,VALID,0.171484,
2008-10-20, 01:33:04,VALID,1002.83,VALID,0,VALID,95.9637,VALID,0,VALID,23.9177,VALID,350,VALID,0.00273437,
2008-10-20, 01:34:04,VALID,1002.82,VALID,0,VALID,95.9713,VALID,0.100563,VALID,23.9177,VALID,350,VALID,0.477344,
2008-10-20, 01:35:04,VALID,1002.84,VALID,0,VALID,95.9942,VALID,0,VALID,23.8982,VALID,193,VALID,0.512109,
2008-10-20, 01:36:04,VALID,1002.82,VALID,0,VALID,95.9942,VALID,0.100563,VALID,23.9177,VALID,193,VALID,0.0398437,
2008-10-20, 01:37:04,VALID,1002.79,VALID,0,VALID,96.0018,VALID,0,VALID,23.9177,VALID,193,VALID,0,
2008-10-20, 01:38:04,VALID,1002.82,VALID,0,VALID,96.0018,VALID,0,VALID,23.9177,VALID,193,VALID,0.0441406,
2008-10-20, 01:39:04,VALID,1002.81,VALID,0,VALID,96.04,VALID,0,VALID,23.9389,VALID,193,VALID,0.576172,
2008-10-20, 01:40:04,VALID,1002.82,VALID,0,VALID,96.0629,VALID,0,VALID,23.9177,VALID,325,VALID,0.427344,
2008-10-20, 01:41:04,VALID,1002.81,VALID,0,VALID,96.0629,VALID,0,VALID,23.9195,VALID,330,VALID,0.586719,
2008-10-20, 01:42:04,VALID,1002.79,VALID,0.5,VALID,96.0705,VALID,0,VALID,23.9177,VALID,341,VALID,0.542188,
2008-10-20, 01:43:04,VALID,1002.78,VALID,0,VALID,96.0552,VALID,0,VALID,23.9389,VALID,347,VALID,0.554297,
2008-10-20, 01:44:04,VALID,1002.77,VALID,0,VALID,96.0705,VALID,0,VALID,23.8982,VALID,351,VALID,0.480859,
2008-10-20, 01:45:04,VALID,1002.72,VALID,0,VALID,96.0781,VALID,0,VALID,23.9389,VALID,351,VALID,0.372266,
2008-10-20, 01:46:04,VALID,1002.72,VALID,0,VALID,96.1086,VALID,0,VALID,23.9584,VALID,354,VALID,0.400391,
2008-10-20, 01:47:04,VALID,1002.71,VALID,0,VALID,96.1239,VALID,0,VALID,23.9779,VALID,354,VALID,0.467578,
2008-10-20, 01:48:04,VALID,1002.7,VALID,0,VALID,96.1163,VALID,0,VALID,23.9584,VALID,343,VALID,0.425,
2008-10-20, 01:49:04,VALID,1002.71,VALID,0,VALID,96.1468,VALID,0,VALID,23.9779,VALID,343,VALID,0.155078,
2008-10-20, 01:50:04,VALID,1002.68,VALID,0,VALID,96.1163,VALID,0,VALID,23.9779,VALID,343,VALID,0,
2008-10-20, 01:51:04,VALID,1002.69,VALID,0,VALID,96.1315,VALID,0,VALID,23.9797,VALID,343,VALID,0.0777344,
2008-10-20, 01:52:04,VALID,1002.73,VALID,0,VALID,96.1239,VALID,0,VALID,23.9973,VALID,343,VALID,0.00234375,
2008-10-20, 01:53:04,VALID,1002.77,VALID,0,VALID,96.1239,VALID,0,VALID,23.9566,VALID,343,VALID,0.247656,
2008-10-20, 01:54:04,VALID,1002.8,VALID,0,VALID,96.162,VALID,0,VALID,23.9389,VALID,343,VALID,0.2875,
2008-10-20, 01:55:04,VALID,1002.79,VALID,0,VALID,96.1697,VALID,0,VALID,23.9195,VALID,343,VALID,0.0957031,
2008-10-20, 01:56:04,VALID,1002.82,VALID,0,VALID,96.1468,VALID,0,VALID,23.8805,VALID,343,VALID,0.149219,
2008-10-20, 01:57:04,VALID,1002.8,VALID,0,VALID,96.162,VALID,0,VALID,23.8398,VALID,343,VALID,0.391406,
2008-10-20, 01:58:04,VALID,1002.83,VALID,0,VALID,96.1773,VALID,0,VALID,23.8805,VALID,343,VALID,0.292578,
2008-10-20, 01:59:04,VALID,1002.82,VALID,0,VALID,96.1468,VALID,0,VALID,23.8611,VALID,343,VALID,0.266406,
2008-10-20, 02:00:04,VALID,1002.76,VALID,0,VALID,96.1773,VALID,0,VALID,23.8416,VALID,343,VALID,0.464063,
2008-10-20, 02:01:04,VALID,1002.72,VALID,0,VALID,96.2002,VALID,0,VALID,23.8416,VALID,343,VALID,0.54375,
2008-10-20, 02:02:04,VALID,1002.7,VALID,0,VALID,96.2078,VALID,0,VALID,23.8416,VALID,347,VALID,0.529688,
2008-10-20, 02:03:04,VALID,1002.67,VALID,0,VALID,96.2078,VALID,0,VALID,23.8221,VALID,341,VALID,0.718359,
2008-10-20, 02:04:04,VALID,1002.67,VALID,0,VALID,96.2002,VALID,0,VALID,23.8221,VALID,339,VALID,0.494141,
2008-10-20, 02:05:04,VALID,1002.67,VALID,0,VALID,96.2078,VALID,0,VALID,23.8221,VALID,339,VALID,0.400781,
2008-10-20, 02:06:04,VALID,1002.69,VALID,0,VALID,96.2231,VALID,0,VALID,23.8221,VALID,341,VALID,0.589844,
2008-10-20, 02:07:04,VALID,1002.67,VALID,0,VALID,96.2536,VALID,0,VALID,23.8434,VALID,350,VALID,0.617578,
2008-10-20, 02:08:04,VALID,1002.71,VALID,0,VALID,96.2307,VALID,0,VALID,23.8221,VALID,342,VALID,0.728516,
2008-10-20, 02:09:04,VALID,1002.68,VALID,0,VALID,96.2383,VALID,0,VALID,23.8221,VALID,350,VALID,0.2875,
2008-10-20, 02:10:04,VALID,1002.71,VALID,0,VALID,96.246,VALID,0,VALID,23.8027,VALID,28,VALID,0.320313,
2008-10-20, 02:11:04,VALID,1002.69,VALID,0,VALID,96.2612,VALID,0,VALID,23.8221,VALID,28,VALID,0.046875,
2008-10-20, 02:12:04,VALID,1002.67,VALID,0,VALID,96.246,VALID,0,VALID,23.7832,VALID,28,VALID,0,
2008-10-20, 02:13:04,VALID,1002.67,VALID,0,VALID,96.2536,VALID,0,VALID,23.7832,VALID,28,VALID,0.0339844,
2008-10-20, 02:14:04,VALID,1002.61,VALID,0,VALID,96.2612,VALID,0,VALID,23.7832,VALID,28,VALID,0,
2008-10-20, 02:15:04,VALID,1002.64,VALID,0,VALID,96.2383,VALID,0,VALID,23.8027,VALID,28,VALID,0,
2008-10-20, 02:16:04,VALID,1002.61,VALID,0,VALID,96.2612,VALID,0,VALID,23.7832,VALID,28,VALID,0.385938,
2008-10-20, 02:17:04,VALID,1002.62,VALID,0,VALID,96.246,VALID,0,VALID,23.7655,VALID,28,VALID,0.345313,
2008-10-20, 02:18:04,VALID,1002.65,VALID,0,VALID,96.246,VALID,0,VALID,23.7443,VALID,28,VALID,0.381641,
2008-10-20, 02:19:04,VALID,1002.66,VALID,0,VALID,96.2536,VALID,0,VALID,23.7461,VALID,36,VALID,0.202734,
2008-10-20, 02:20:04,VALID,1002.68,VALID,0,VALID,96.2841,VALID,0,VALID,23.7248,VALID,36,VALID,0.0472656,
2008-10-20, 02:21:04,VALID,1002.66,VALID,0,VALID,96.2765,VALID,0,VALID,23.7035,VALID,36,VALID,0.398828,
2008-10-20, 02:22:04,VALID,1002.67,VALID,0,VALID,96.2841,VALID,0,VALID,23.7443,VALID,66,VALID,0.166016,
2008-10-20, 02:23:04,VALID,1002.71,VALID,0,VALID,96.2917,VALID,0,VALID,23.7443,VALID,54,VALID,0.367188,
2008-10-20, 02:24:04,VALID,1002.74,VALID,0,VALID,96.2994,VALID,0,VALID,23.7637,VALID,76,VALID,0.723828,
2008-10-20, 02:25:04,VALID,1002.74,VALID,0,VALID,96.307,VALID,0,VALID,23.7248,VALID,99,VALID,0.944531,
2008-10-20, 02:26:04,VALID,1002.72,VALID,0,VALID,96.2994,VALID,0,VALID,23.7035,VALID,97,VALID,1.24297,
2008-10-20, 02:27:04,VALID,1002.76,VALID,0,VALID,96.2917,VALID,0,VALID,23.7053,VALID,72,VALID,1.70781,
2008-10-20, 02:28:04,VALID,1002.75,VALID,0,VALID,96.2917,VALID,0,VALID,23.7053,VALID,65,VALID,1.0043,
2008-10-20, 02:29:04,VALID,1002.77,VALID,0,VALID,96.2994,VALID,0,VALID,23.7248,VALID,69,VALID,0.861328,
2008-10-20, 02:30:04,VALID,1002.75,VALID,0,VALID,96.3146,VALID,0,VALID,23.7053,VALID,74,VALID,0.697266,
2008-10-20, 02:31:04,VALID,1002.74,VALID,0,VALID,96.3222,VALID,0,VALID,23.7248,VALID,91,VALID,1.19336,
2008-10-20, 02:32:04,VALID,1002.76,VALID,0,VALID,96.3146,VALID,0,VALID,23.7637,VALID,78,VALID,0.6875,
2008-10-20, 02:33:04,VALID,1002.76,VALID,0,VALID,96.3222,VALID,0,VALID,23.8239,VALID,73,VALID,1.94531,
2008-10-20, 02:34:04,VALID,1002.78,VALID,0,VALID,96.3451,VALID,0,VALID,23.8416,VALID,57,VALID,1.00039,
2008-10-20, 02:35:04,VALID,1002.81,VALID,0,VALID,96.3604,VALID,0,VALID,23.8221,VALID,92,VALID,1.36406,
2008-10-20, 02:36:04,VALID,1002.8,VALID,0,VALID,96.3375,VALID,0,VALID,23.8221,VALID,78,VALID,1.15781,
2008-10-20, 02:37:04,VALID,1002.83,VALID,0,VALID,96.3451,VALID,0,VALID,23.8611,VALID,68,VALID,1.28086,
2008-10-20, 02:38:04,VALID,1002.78,VALID,0,VALID,96.3451,VALID,0,VALID,23.8611,VALID,19,VALID,2.1082,
2008-10-20, 02:39:04,VALID,1002.75,VALID,0.5,VALID,96.3146,VALID,0,VALID,23.9,VALID,46,VALID,1.03672,
2008-10-20, 02:40:04,VALID,1002.74,VALID,0,VALID,96.3146,VALID,0.100563,VALID,23.8593,VALID,82,VALID,0.810156,
2008-10-20, 02:41:04,VALID,1002.75,VALID,0,VALID,96.3146,VALID,0,VALID,23.8593,VALID,53,VALID,1.04766,
2008-10-20, 02:42:04,VALID,1002.75,VALID,0,VALID,96.2994,VALID,0,VALID,23.8203,VALID,39,VALID,1.14727,
2008-10-20, 02:43:04,VALID,1002.76,VALID,0,VALID,96.2765,VALID,0,VALID,23.8203,VALID,33,VALID,0.403906,
2008-10-20, 02:44:04,VALID,1002.77,VALID,0,VALID,96.2688,VALID,0,VALID,23.8009,VALID,32,VALID,1.76367,
2008-10-20, 02:45:04,VALID,1002.72,VALID,0,VALID,96.2536,VALID,0,VALID,23.7991,VALID,109,VALID,0.841016,
2008-10-20, 02:46:04,VALID,1002.76,VALID,0,VALID,96.2231,VALID,0,VALID,23.7814,VALID,71,VALID,1.03516,
2008-10-20, 02:47:04,VALID,1002.73,VALID,0.5,VALID,96.1544,VALID,0,VALID,23.7035,VALID,53,VALID,1.40273,
2008-10-20, 02:48:04,VALID,1002.67,VALID,0,VALID,96.1239,VALID,0,VALID,23.6841,VALID,28,VALID,1.42031,
2008-10-20, 02:49:04,VALID,1002.63,VALID,0,VALID,96.101,VALID,0,VALID,23.6841,VALID,9,VALID,1.76602,
2008-10-20, 02:50:04,VALID,1002.57,VALID,0,VALID,96.0781,VALID,0,VALID,23.6646,VALID,35,VALID,1.91992,
2008-10-20, 02:51:04,VALID,1002.53,VALID,0,VALID,96.04,VALID,0,VALID,23.6646,VALID,35,VALID,1.69297,
2008-10-20, 02:52:04,VALID,1002.48,VALID,0.5,VALID,96.0171,VALID,0,VALID,23.6859,VALID,77,VALID,1.33516,
2008-10-20, 02:53:04,VALID,1002.46,VALID,0,VALID,96.0476,VALID,0.100563,VALID,23.6646,VALID,19,VALID,0.650391,
2008-10-20, 02:54:04,VALID,1002.47,VALID,0,VALID,96.0476,VALID,0,VALID,23.6859,VALID,26,VALID,1.89375,
2008-10-20, 02:55:04,VALID,1002.51,VALID,0,VALID,96.0552,VALID,0,VALID,23.6859,VALID,35,VALID,1.56445,
2008-10-20, 02:56:04,VALID,1002.47,VALID,0,VALID,96.04,VALID,0,VALID,23.6841,VALID,24,VALID,3.08828,
2008-10-20, 02:57:04,VALID,1002.49,VALID,0,VALID,96.0323,VALID,0,VALID,23.7035,VALID,25,VALID,1.48945,
2008-10-20, 02:58:04,VALID,1002.5,VALID,0,VALID,96.0323,VALID,0,VALID,23.7637,VALID,35,VALID,1.55156,
2008-10-20, 02:59:04,VALID,1002.5,VALID,0,VALID,95.9713,VALID,0,VALID,23.7248,VALID,11,VALID,2.11641,
2008-10-20, 03:00:04,VALID,1002.48,VALID,0,VALID,95.9179,VALID,0,VALID,23.7637,VALID,32,VALID,1.56016,
2008-10-20, 03:01:04,VALID,1002.47,VALID,0,VALID,95.9408,VALID,0,VALID,23.7637,VALID,10,VALID,1.45039,
2008-10-20, 03:02:04,VALID,1002.46,VALID,0,VALID,95.9103,VALID,0,VALID,23.7637,VALID,37,VALID,2.15156,
2008-10-20, 03:03:04,VALID,1002.43,VALID,0.5,VALID,95.8721,VALID,0,VALID,23.7425,VALID,358,VALID,1.68984,
2008-10-20, 03:04:04,VALID,1002.44,VALID,0,VALID,95.8721,VALID,0,VALID,23.7212,VALID,3,VALID,1.50039,
2008-10-20, 03:05:04,VALID,1002.46,VALID,0,VALID,95.7501,VALID,0,VALID,23.7443,VALID,358,VALID,2.06484,
2008-10-20, 03:06:04,VALID,1002.46,VALID,0,VALID,95.773,VALID,0,VALID,23.7053,VALID,20,VALID,1.96719,
2008-10-20, 03:07:04,VALID,1002.46,VALID,0,VALID,95.834,VALID,0,VALID,23.723,VALID,27,VALID,1.32461,
2008-10-20, 03:08:04,VALID,1002.46,VALID,0,VALID,95.7653,VALID,0,VALID,23.7035,VALID,338,VALID,1.18477,
2008-10-20, 03:09:04,VALID,1002.46,VALID,0,VALID,95.7577,VALID,0.100563,VALID,23.7248,VALID,337,VALID,0.634766,
2008-10-20, 03:10:04,VALID,1002.5,VALID,0,VALID,95.7806,VALID,0,VALID,23.7053,VALID,16,VALID,0.904688,
2008-10-20, 03:11:04,VALID,1002.48,VALID,0,VALID,95.7882,VALID,0,VALID,23.7053,VALID,355,VALID,1.14531,
2008-10-20, 03:12:04,VALID,1002.51,VALID,0,VALID,95.7882,VALID,0,VALID,23.7053,VALID,19,VALID,0.913281,
2008-10-20, 03:13:04,VALID,1002.53,VALID,0,VALID,95.8264,VALID,0,VALID,23.7053,VALID,15,VALID,1.34219,
2008-10-20, 03:14:04,VALID,1002.48,VALID,0,VALID,95.8645,VALID,0,VALID,23.7053,VALID,33,VALID,0.336719,
2008-10-20, 03:15:04,VALID,1002.47,VALID,0,VALID,95.8721,VALID,0,VALID,23.6859,VALID,39,VALID,0.852344,
2008-10-20, 03:16:04,VALID,1002.46,VALID,0,VALID,95.9103,VALID,0,VALID,23.7053,VALID,42,VALID,1.11172,
2008-10-20, 03:17:04,VALID,1002.44,VALID,0,VALID,95.9561,VALID,0,VALID,23.7443,VALID,31,VALID,0.682813,
2008-10-20, 03:18:04,VALID,1002.43,VALID,0,VALID,95.9484,VALID,0,VALID,23.7425,VALID,58,VALID,0.582031,
2008-10-20, 03:19:04,VALID,1002.43,VALID,0,VALID,95.9942,VALID,0,VALID,23.7832,VALID,38,VALID,0.491406,
2008-10-20, 03:20:04,VALID,1002.39,VALID,0,VALID,96.0247,VALID,0,VALID,23.8203,VALID,20,VALID,0.720312,
2008-10-20, 03:21:04,VALID,1002.38,VALID,0,VALID,96.0171,VALID,0,VALID,23.9,VALID,52,VALID,1.05742,
2008-10-20, 03:22:04,VALID,1002.34,VALID,0,VALID,96.0476,VALID,0,VALID,23.9177,VALID,93,VALID,0.985937,
2008-10-20, 03:23:04,VALID,1002.28,VALID,0,VALID,96.0171,VALID,0,VALID,23.9566,VALID,42,VALID,0.768359,
2008-10-20, 03:24:04,VALID,1002.27,VALID,0,VALID,95.9866,VALID,0,VALID,23.9779,VALID,69,VALID,0.664063,
2008-10-20, 03:25:04,VALID,1002.23,VALID,0,VALID,95.9713,VALID,0,VALID,23.9973,VALID,86,VALID,0.619922,
2008-10-20, 03:26:04,VALID,1002.17,VALID,0,VALID,95.9637,VALID,0,VALID,23.9566,VALID,106,VALID,0.980078,
2008-10-20, 03:27:04,VALID,1002.16,VALID,0,VALID,95.9332,VALID,0,VALID,23.9955,VALID,64,VALID,0.796484,
2008-10-20, 03:28:04,VALID,1002.12,VALID,0,VALID,95.9332,VALID,0,VALID,23.9955,VALID,78,VALID,0.176953,
2008-10-20, 03:29:04,VALID,1002.12,VALID,0,VALID,95.9027,VALID,0,VALID,23.9955,VALID,99,VALID,0.583594,
2008-10-20, 03:30:04,VALID,1002.13,VALID,0,VALID,95.9103,VALID,0,VALID,24.0168,VALID,71,VALID,0.914844,
2008-10-20, 03:31:04,VALID,1002.15,VALID,0,VALID,95.9255,VALID,0,VALID,24.0345,VALID,99,VALID,0.6875,
2008-10-20, 03:32:04,VALID,1002.21,VALID,0,VALID,95.9255,VALID,0,VALID,23.9955,VALID,98,VALID,1.22891,
2008-10-20, 03:33:04,VALID,1002.25,VALID,0,VALID,95.9103,VALID,0,VALID,24.0363,VALID,113,VALID,1.23672,
2008-10-20, 03:34:04,VALID,1002.33,VALID,0,VALID,95.9179,VALID,0,VALID,24.0345,VALID,128,VALID,1.53164,
2008-10-20, 03:35:04,VALID,1002.38,VALID,0,VALID,95.9332,VALID,0,VALID,24.0947,VALID,117,VALID,1.625,
2008-10-20, 03:36:04,VALID,1002.44,VALID,0,VALID,95.895,VALID,0,VALID,24.0947,VALID,134,VALID,1.60938,
2008-10-20, 03:37:04,VALID,1002.47,VALID,0,VALID,95.8645,VALID,0,VALID,24.0734,VALID,117,VALID,1.23555,
2008-10-20, 03:38:04,VALID,1002.52,VALID,0,VALID,95.8645,VALID,0,VALID,24.0929,VALID,94,VALID,1.0543,
2008-10-20, 03:39:04,VALID,1002.56,VALID,0,VALID,95.9027,VALID,0,VALID,24.1336,VALID,98,VALID,1.65664,
2008-10-20, 03:40:04,VALID,1002.54,VALID,0,VALID,95.9179,VALID,0,VALID,24.1513,VALID,103,VALID,3.21992,
2008-10-20, 03:41:04,VALID,1002.6,VALID,0,VALID,95.834,VALID,0,VALID,24.1939,VALID,112,VALID,2.09102,
2008-10-20, 03:42:04,VALID,1002.62,VALID,0,VALID,95.7577,VALID,0,VALID,24.1707,VALID,66,VALID,1.27031,
2008-10-20, 03:43:04,VALID,1002.61,VALID,0,VALID,95.6585,VALID,0,VALID,24.1726,VALID,106,VALID,2.09766,
2008-10-20, 03:44:04,VALID,1002.6,VALID,0,VALID,95.2084,VALID,0,VALID,24.0168,VALID,59,VALID,2.79531,